User: anonymous   Login
Location: Unspecified
(0.0000°N, 0.0000°E)
Time: 19:48:48
(UTC+00:00)
Language:

Mublcom - Orbit

View from above orbital plane
View from above orbital plane
View from above satellite
View from above satellite

Ground track
Ground track

The orbit data is extracted from the following two-line orbital elements,

1 25736U 99026B   17269.22798211  .00000235  00000-0  72104-4 0  9994
2 25736  97.7572 340.2372 0006595  80.0468 280.1471 14.48982504967824
Epoch (UTC): 26 September 2017 05:28:17
Eccentricity: 0.0006595
inclination: 97.7572°
perigee height: 724 km
apogee height: 733 km
right ascension of ascending node: 340.2372°
argument of perigee: 80.0468°
revolutions per day: 14.48982504
mean anomaly at epoch: 280.1471°
orbit number at epoch: 96782

The dashed part of the orbit path shows where the satellite is in the earth's shadow,  

DLR